Year,Month,Day,Hour,Minute,Value (Times are PST for temperature in C)
2014,03,24,00,00,5.40
2014,03,24,00,01,5.40
2014,03,24,00,02,5.40
2014,03,24,00,03,5.40
2014,03,24,00,04,5.40
2014,03,24,00,05,5.40
2014,03,24,00,06,5.40
2014,03,24,00,07,5.40
2014,03,24,00,08,5.40
2014,03,24,00,09,5.40
2014,03,24,00,10,5.30
2014,03,24,00,11,5.40
2014,03,24,00,12,5.30
2014,03,24,00,13,5.30
2014,03,24,00,14,5.30
2014,03,24,00,15,5.30
2014,03,24,00,16,5.40
2014,03,24,00,17,5.40
2014,03,24,00,18,5.40
2014,03,24,00,19,5.40
2014,03,24,00,20,5.40
2014,03,24,00,21,5.40
2014,03,24,00,22,5.40
2014,03,24,00,23,5.40
2014,03,24,00,24,5.40
2014,03,24,00,25,5.50
2014,03,24,00,26,5.50
2014,03,24,00,27,5.50
2014,03,24,00,28,5.50
2014,03,24,00,29,5.50
2014,03,24,00,30,5.50
2014,03,24,00,31,5.50
2014,03,24,00,32,5.50
2014,03,24,00,33,5.50
2014,03,24,00,34,5.50
2014,03,24,00,35,5.40
2014,03,24,00,36,5.50
2014,03,24,00,37,5.40
2014,03,24,00,38,5.40
2014,03,24,00,39,5.40
2014,03,24,00,40,5.40
2014,03,24,00,41,5.40
2014,03,24,00,42,5.40
2014,03,24,00,43,5.40
2014,03,24,00,44,5.40
2014,03,24,00,45,5.40
2014,03,24,00,46,5.40
2014,03,24,00,47,5.40
2014,03,24,00,48,5.40
2014,03,24,00,49,5.40
2014,03,24,00,50,5.40
2014,03,24,00,51,5.40
2014,03,24,00,52,5.40
2014,03,24,00,53,5.40
2014,03,24,00,54,5.40
2014,03,24,00,55,5.40
2014,03,24,00,56,5.40
2014,03,24,00,57,5.40
2014,03,24,00,58,5.40
2014,03,24,00,59,5.40
2014,03,24,01,00,5.40
2014,03,24,01,01,5.40
2014,03,24,01,02,5.40
2014,03,24,01,03,5.40
2014,03,24,01,04,5.40
2014,03,24,01,05,5.40
2014,03,24,01,06,5.30
2014,03,24,01,07,5.40
2014,03,24,01,08,5.40
2014,03,24,01,09,5.30
2014,03,24,01,10,5.30
2014,03,24,01,11,5.30
2014,03,24,01,12,5.30
2014,03,24,01,13,5.30
2014,03,24,01,14,5.30
2014,03,24,01,15,5.30
2014,03,24,01,16,5.30
2014,03,24,01,17,5.40
2014,03,24,01,18,5.40
2014,03,24,01,19,5.40
2014,03,24,01,20,5.40
2014,03,24,01,21,5.40
2014,03,24,01,22,5.40
2014,03,24,01,23,5.40
2014,03,24,01,24,5.30
2014,03,24,01,25,5.30
2014,03,24,01,26,5.30
2014,03,24,01,27,5.30
2014,03,24,01,28,5.30
2014,03,24,01,29,5.30
2014,03,24,01,30,5.30
2014,03,24,01,31,5.30
2014,03,24,01,32,5.30
2014,03,24,01,33,5.30
2014,03,24,01,34,5.30
2014,03,24,01,35,5.30
2014,03,24,01,36,5.30
2014,03,24,01,37,5.20
2014,03,24,01,38,5.20
2014,03,24,01,39,5.20
2014,03,24,01,40,5.20
2014,03,24,01,41,5.20
2014,03,24,01,42,5.20
2014,03,24,01,43,5.20
2014,03,24,01,44,5.30
2014,03,24,01,45,5.30
2014,03,24,01,46,5.30
2014,03,24,01,47,5.30
2014,03,24,01,48,5.30
2014,03,24,01,49,5.30
2014,03,24,01,50,5.30
2014,03,24,01,51,5.30
2014,03,24,01,52,5.30
2014,03,24,01,53,5.30
2014,03,24,01,54,5.30
2014,03,24,01,55,5.30
2014,03,24,01,56,5.30
2014,03,24,01,57,5.30
2014,03,24,01,58,5.30
2014,03,24,01,59,5.30
2014,03,24,02,00,5.30
2014,03,24,02,01,5.30
2014,03,24,02,02,5.30
2014,03,24,02,03,5.30
2014,03,24,02,04,5.20
2014,03,24,02,05,5.20
2014,03,24,02,06,5.30
2014,03,24,02,07,5.30
2014,03,24,02,08,5.30
2014,03,24,02,09,5.30
2014,03,24,02,10,5.30
2014,03,24,02,11,5.30
2014,03,24,02,12,5.30
2014,03,24,02,13,5.30
2014,03,24,02,14,5.30
2014,03,24,02,15,5.30
2014,03,24,02,16,5.30
2014,03,24,02,17,5.30
2014,03,24,02,18,5.30
2014,03,24,02,19,5.30
2014,03,24,02,20,5.30
2014,03,24,02,21,5.30
2014,03,24,02,22,5.30
2014,03,24,02,23,5.30
2014,03,24,02,24,5.30
2014,03,24,02,25,5.30
2014,03,24,02,26,5.30
2014,03,24,02,27,5.30
2014,03,24,02,28,5.30
2014,03,24,02,29,5.30
2014,03,24,02,30,5.30
2014,03,24,02,31,5.30
2014,03,24,02,32,5.30
2014,03,24,02,33,5.30
2014,03,24,02,34,5.30
2014,03,24,02,35,5.30
2014,03,24,02,36,5.30
2014,03,24,02,37,5.30
2014,03,24,02,38,5.30
2014,03,24,02,39,5.30
2014,03,24,02,40,5.30
2014,03,24,02,41,5.30
2014,03,24,02,42,5.30
2014,03,24,02,43,5.30
2014,03,24,02,44,5.30
2014,03,24,02,45,5.30
2014,03,24,02,46,5.30
2014,03,24,02,47,5.30
2014,03,24,02,48,5.30
2014,03,24,02,49,5.30
2014,03,24,02,50,5.30
2014,03,24,02,51,5.40
2014,03,24,02,52,5.40
2014,03,24,02,53,5.40
2014,03,24,02,54,5.40
2014,03,24,02,55,5.40
2014,03,24,02,56,5.40
2014,03,24,02,57,5.40
2014,03,24,02,58,5.40
2014,03,24,02,59,5.40
2014,03,24,03,00,5.30
2014,03,24,03,01,5.40
2014,03,24,03,02,5.40
2014,03,24,03,03,5.40
2014,03,24,03,04,5.30
2014,03,24,03,05,5.40
2014,03,24,03,06,5.30
2014,03,24,03,07,5.30
2014,03,24,03,08,5.30
2014,03,24,03,09,5.30
2014,03,24,03,10,5.30
2014,03,24,03,11,5.30
2014,03,24,03,12,5.40
2014,03,24,03,13,5.40
2014,03,24,03,14,5.40
2014,03,24,03,15,5.40
2014,03,24,03,16,5.40
2014,03,24,03,17,5.40
2014,03,24,03,18,5.40
2014,03,24,03,19,5.30
2014,03,24,03,20,5.40
2014,03,24,03,21,5.40
2014,03,24,03,22,5.40
2014,03,24,03,23,5.30
2014,03,24,03,24,5.30
2014,03,24,03,25,5.40
2014,03,24,03,26,5.40
2014,03,24,03,27,5.30
2014,03,24,03,28,5.30
2014,03,24,03,29,5.30
2014,03,24,03,30,5.30
2014,03,24,03,31,5.40
2014,03,24,03,32,5.40
2014,03,24,03,33,5.40
2014,03,24,03,34,5.40
2014,03,24,03,35,5.40
2014,03,24,03,36,5.40
2014,03,24,03,37,5.40
2014,03,24,03,38,5.40
2014,03,24,03,39,5.40
2014,03,24,03,40,5.40
2014,03,24,03,41,5.40
2014,03,24,03,42,5.40
2014,03,24,03,43,5.40
2014,03,24,03,44,5.40
2014,03,24,03,45,5.40
2014,03,24,03,46,5.40
2014,03,24,03,47,5.40
2014,03,24,03,48,5.40
2014,03,24,03,49,5.40
2014,03,24,03,50,5.40
2014,03,24,03,51,5.40
2014,03,24,03,52,5.40
2014,03,24,03,53,5.40
2014,03,24,03,54,5.40
2014,03,24,03,55,5.40
2014,03,24,03,56,5.40
2014,03,24,03,57,5.40
2014,03,24,03,58,5.30
2014,03,24,03,59,5.30
2014,03,24,04,00,5.30
2014,03,24,04,01,5.30
2014,03,24,04,02,5.30
2014,03,24,04,03,5.30
2014,03,24,04,04,5.30
2014,03,24,04,05,5.30
2014,03,24,04,06,5.30
2014,03,24,04,07,5.30
2014,03,24,04,08,5.30
2014,03,24,04,09,5.40
2014,03,24,04,10,5.40
2014,03,24,04,11,5.40
2014,03,24,04,12,5.40
2014,03,24,04,13,5.40
2014,03,24,04,14,5.40
2014,03,24,04,15,5.40
2014,03,24,04,16,5.40
2014,03,24,04,17,5.40
2014,03,24,04,18,5.40
2014,03,24,04,19,5.40
2014,03,24,04,20,5.40
2014,03,24,04,21,5.40
2014,03,24,04,22,5.40
2014,03,24,04,23,5.40
2014,03,24,04,24,5.40
2014,03,24,04,25,5.40
2014,03,24,04,26,5.40
2014,03,24,04,27,5.30
2014,03,24,04,28,5.30
2014,03,24,04,29,5.30
2014,03,24,04,30,5.30
2014,03,24,04,31,5.30
2014,03,24,04,32,5.30
2014,03,24,04,33,5.30
2014,03,24,04,34,5.30
2014,03,24,04,35,5.30
2014,03,24,04,36,5.20
2014,03,24,04,37,5.20
2014,03,24,04,38,5.20
2014,03,24,04,39,5.20
2014,03,24,04,40,5.20
2014,03,24,04,41,5.20
2014,03,24,04,42,5.20
2014,03,24,04,43,5.30
2014,03,24,04,44,5.30
2014,03,24,04,45,5.30
2014,03,24,04,46,5.30
2014,03,24,04,47,5.30
2014,03,24,04,48,5.30
2014,03,24,04,49,5.30
2014,03,24,04,50,5.30
2014,03,24,04,51,5.30
2014,03,24,04,52,5.30
2014,03,24,04,53,5.30
2014,03,24,04,54,5.30
2014,03,24,04,55,5.30
2014,03,24,04,56,5.30
2014,03,24,04,57,5.30
2014,03,24,04,58,5.30
2014,03,24,04,59,5.30
2014,03,24,05,00,5.30
2014,03,24,05,01,5.30
2014,03,24,05,02,5.30
2014,03,24,05,03,5.30
2014,03,24,05,04,5.30
2014,03,24,05,05,5.30
2014,03,24,05,06,5.30
2014,03,24,05,07,5.30
2014,03,24,05,08,5.30
2014,03,24,05,09,5.30
2014,03,24,05,10,5.30
2014,03,24,05,11,5.30
2014,03,24,05,12,5.30
2014,03,24,05,13,5.30
2014,03,24,05,14,5.30
2014,03,24,05,15,5.30
2014,03,24,05,16,5.30
2014,03,24,05,17,5.30
2014,03,24,05,18,5.30
2014,03,24,05,19,5.30
2014,03,24,05,20,5.30
2014,03,24,05,21,5.30
2014,03,24,05,22,5.30
2014,03,24,05,23,5.30
2014,03,24,05,24,5.20
2014,03,24,05,25,5.20
2014,03,24,05,26,5.20
2014,03,24,05,27,5.20
2014,03,24,05,28,5.20
2014,03,24,05,29,5.20
2014,03,24,05,30,5.20
2014,03,24,05,31,5.20
2014,03,24,05,32,5.20
2014,03,24,05,33,5.20
2014,03,24,05,34,5.20
2014,03,24,05,35,5.20
2014,03,24,05,36,5.20
2014,03,24,05,37,5.20
2014,03,24,05,38,5.20
2014,03,24,05,39,5.20
2014,03,24,05,40,5.20
2014,03,24,05,41,5.20
2014,03,24,05,42,5.20
2014,03,24,05,43,5.20
2014,03,24,05,44,5.20
2014,03,24,05,45,5.20
2014,03,24,05,46,5.20
2014,03,24,05,47,5.20
2014,03,24,05,48,5.20
2014,03,24,05,49,5.20
2014,03,24,05,50,5.20
2014,03,24,05,51,5.10
2014,03,24,05,52,5.10
2014,03,24,05,53,5.10
2014,03,24,05,54,5.10
2014,03,24,05,55,5.10
2014,03,24,05,56,5.10
2014,03,24,05,57,5.10
2014,03,24,05,58,5.10
2014,03,24,05,59,5.10
2014,03,24,06,00,5.10
2014,03,24,06,01,5.10
2014,03,24,06,02,5.10
2014,03,24,06,03,5.10
2014,03,24,06,04,5.10
2014,03,24,06,05,5.10
2014,03,24,06,06,5.10
2014,03,24,06,07,5.10
2014,03,24,06,08,5.10
2014,03,24,06,09,5.10
2014,03,24,06,10,5.10
2014,03,24,06,11,5.10
2014,03,24,06,12,5.10
2014,03,24,06,13,5.10
2014,03,24,06,14,5.10
2014,03,24,06,15,5.10
2014,03,24,06,16,5.10
2014,03,24,06,17,5.10
2014,03,24,06,18,5.10
2014,03,24,06,19,5.10
2014,03,24,06,20,5.10
2014,03,24,06,21,5.10
2014,03,24,06,22,5.00
2014,03,24,06,23,5.00
2014,03,24,06,24,5.00
2014,03,24,06,25,5.00
2014,03,24,06,26,5.00
2014,03,24,06,27,5.00
2014,03,24,06,28,5.00
2014,03,24,06,29,5.00
2014,03,24,06,30,5.00
2014,03,24,06,31,5.00
2014,03,24,06,32,5.00
2014,03,24,06,33,4.90
2014,03,24,06,34,4.90
2014,03,24,06,35,4.90
2014,03,24,06,36,4.90
2014,03,24,06,37,4.90
2014,03,24,06,38,4.90
2014,03,24,06,39,4.90
2014,03,24,06,40,4.90
2014,03,24,06,41,4.90
2014,03,24,06,42,4.90
2014,03,24,06,43,4.90
2014,03,24,06,44,4.90
2014,03,24,06,45,4.90
2014,03,24,06,46,4.90
2014,03,24,06,47,4.90
2014,03,24,06,48,5.00
2014,03,24,06,49,5.00
2014,03,24,06,50,5.00
2014,03,24,06,51,5.00
2014,03,24,06,52,5.00
2014,03,24,06,53,5.00
2014,03,24,06,54,5.00
2014,03,24,06,55,5.00
2014,03,24,06,56,5.00
2014,03,24,06,57,5.00
2014,03,24,06,58,5.00
2014,03,24,06,59,5.00
2014,03,24,07,00,5.00
2014,03,24,07,01,5.00
2014,03,24,07,02,5.00
2014,03,24,07,03,5.00
2014,03,24,07,04,5.00
2014,03,24,07,05,5.00
2014,03,24,07,06,5.00
2014,03,24,07,07,5.00
2014,03,24,07,08,5.00
2014,03,24,07,09,4.90
2014,03,24,07,10,4.90
2014,03,24,07,11,4.90
2014,03,24,07,12,4.90
2014,03,24,07,13,5.00
2014,03,24,07,14,5.00
2014,03,24,07,15,5.00
2014,03,24,07,16,5.00
2014,03,24,07,17,5.00
2014,03,24,07,18,5.00
2014,03,24,07,19,5.00
2014,03,24,07,20,5.00
2014,03,24,07,21,5.00
2014,03,24,07,22,5.00
2014,03,24,07,23,4.90
2014,03,24,07,24,5.00
2014,03,24,07,25,5.00
2014,03,24,07,26,5.00
2014,03,24,07,27,5.00
2014,03,24,07,28,5.00
2014,03,24,07,29,5.00
2014,03,24,07,30,5.00
2014,03,24,07,31,5.00
2014,03,24,07,32,5.00
2014,03,24,07,33,5.00
2014,03,24,07,34,5.00
2014,03,24,07,35,5.10
2014,03,24,07,36,5.10
2014,03,24,07,37,5.10
2014,03,24,07,38,5.10
2014,03,24,07,39,5.10
2014,03,24,07,40,5.10
2014,03,24,07,41,5.10
2014,03,24,07,42,5.10
2014,03,24,07,43,5.10
2014,03,24,07,44,5.10
2014,03,24,07,45,5.10
2014,03,24,07,46,5.10
2014,03,24,07,47,5.10
2014,03,24,07,48,5.10
2014,03,24,07,49,5.10
2014,03,24,07,50,5.10
2014,03,24,07,51,5.10
2014,03,24,07,52,5.10
2014,03,24,07,53,5.10
2014,03,24,07,54,5.10
2014,03,24,07,55,5.10
2014,03,24,07,56,5.20
2014,03,24,07,57,5.20
2014,03,24,07,58,5.20
2014,03,24,07,59,5.20
2014,03,24,08,00,5.20
2014,03,24,08,01,5.20
2014,03,24,08,02,5.20
2014,03,24,08,03,5.20
2014,03,24,08,04,5.30
2014,03,24,08,05,5.30
2014,03,24,08,06,5.30
2014,03,24,08,07,5.30
2014,03,24,08,08,5.30
2014,03,24,08,09,5.30
2014,03,24,08,10,5.30
2014,03,24,08,11,5.30
2014,03,24,08,12,5.30
2014,03,24,08,13,5.30
2014,03,24,08,14,5.30
2014,03,24,08,15,5.30
2014,03,24,08,16,5.30
2014,03,24,08,17,5.30
2014,03,24,08,18,5.30
2014,03,24,08,19,5.30
2014,03,24,08,20,5.30
2014,03,24,08,21,5.30
2014,03,24,08,22,5.30
2014,03,24,08,23,5.30
2014,03,24,08,24,5.40
2014,03,24,08,25,5.40
2014,03,24,08,26,5.40
2014,03,24,08,27,5.40
2014,03,24,08,28,5.40
2014,03,24,08,29,5.40
2014,03,24,08,30,5.40
2014,03,24,08,31,5.40
2014,03,24,08,32,5.40
2014,03,24,08,33,5.40
2014,03,24,08,34,5.40
2014,03,24,08,35,5.40
2014,03,24,08,36,5.40
2014,03,24,08,37,5.40
2014,03,24,08,38,5.50
2014,03,24,08,39,5.50
2014,03,24,08,40,5.60
2014,03,24,08,41,5.60
2014,03,24,08,42,5.70
2014,03,24,08,43,5.70
2014,03,24,08,44,5.70
2014,03,24,08,45,5.80
2014,03,24,08,46,5.80
2014,03,24,08,47,5.80
2014,03,24,08,48,5.90
2014,03,24,08,49,5.90
2014,03,24,08,50,5.90
2014,03,24,08,51,5.90
2014,03,24,08,52,5.90
2014,03,24,08,53,6.00
2014,03,24,08,54,6.00
2014,03,24,08,55,6.00
2014,03,24,08,56,6.00
2014,03,24,08,57,6.00
2014,03,24,08,58,6.00
2014,03,24,08,59,6.10
2014,03,24,09,00,6.10
2014,03,24,09,01,6.20
2014,03,24,09,02,6.20
2014,03,24,09,03,6.20
2014,03,24,09,04,6.30
2014,03,24,09,05,6.30
2014,03,24,09,06,6.40
2014,03,24,09,07,6.40
2014,03,24,09,08,6.50
2014,03,24,09,09,6.50
2014,03,24,09,10,6.60
2014,03,24,09,11,6.60
2014,03,24,09,12,6.60
2014,03,24,09,13,6.70
2014,03,24,09,14,6.70
2014,03,24,09,15,6.80
2014,03,24,09,16,6.80
2014,03,24,09,17,6.80
2014,03,24,09,18,6.80
2014,03,24,09,19,6.80
2014,03,24,09,20,6.90
2014,03,24,09,21,6.90
2014,03,24,09,22,6.90
2014,03,24,09,23,6.90
2014,03,24,09,24,7.00
2014,03,24,09,25,7.00
2014,03,24,09,26,7.10
2014,03,24,09,27,7.10
2014,03,24,09,28,7.20
2014,03,24,09,29,7.20
2014,03,24,09,30,7.20
2014,03,24,09,31,7.20
2014,03,24,09,32,7.20
2014,03,24,09,33,7.30
2014,03,24,09,34,7.30
2014,03,24,09,35,7.30
2014,03,24,09,36,7.30
2014,03,24,09,37,7.30
2014,03,24,09,38,7.30
2014,03,24,09,39,7.30
2014,03,24,09,40,7.30
2014,03,24,09,41,7.30
2014,03,24,09,42,7.40
2014,03,24,09,43,7.40
2014,03,24,09,44,7.40
2014,03,24,09,45,7.40
2014,03,24,09,46,7.40
2014,03,24,09,47,7.40
2014,03,24,09,48,7.40
2014,03,24,09,49,7.50
2014,03,24,09,50,7.50
2014,03,24,09,51,7.50
2014,03,24,09,52,7.60
2014,03,24,09,53,7.60
2014,03,24,09,54,7.50
2014,03,24,09,55,7.50
2014,03,24,09,56,7.50
2014,03,24,09,57,7.50
2014,03,24,09,58,7.50
2014,03,24,09,59,7.40
2014,03,24,10,00,7.40
2014,03,24,10,01,7.30
2014,03,24,10,02,7.40
2014,03,24,10,03,7.40
2014,03,24,10,04,7.50
2014,03,24,10,05,7.50
2014,03,24,10,06,7.50
2014,03,24,10,07,7.60
2014,03,24,10,08,7.60
2014,03,24,10,09,7.70
2014,03,24,10,10,7.70
2014,03,24,10,11,7.70
2014,03,24,10,12,7.70
2014,03,24,10,13,7.80
2014,03,24,10,14,7.80
2014,03,24,10,15,7.70
2014,03,24,10,16,7.70
2014,03,24,10,17,7.70
2014,03,24,10,18,7.80
2014,03,24,10,19,7.80
2014,03,24,10,20,7.80
2014,03,24,10,21,7.90
2014,03,24,10,22,7.90
2014,03,24,10,23,8.00
2014,03,24,10,24,8.00
2014,03,24,10,25,8.10
2014,03,24,10,26,8.10
2014,03,24,10,27,8.10
2014,03,24,10,28,8.10
2014,03,24,10,29,8.10
2014,03,24,10,30,8.20
2014,03,24,10,31,8.20
2014,03,24,10,32,8.20
2014,03,24,10,33,8.20
2014,03,24,10,34,8.20
2014,03,24,10,35,8.20
2014,03,24,10,36,8.20
2014,03,24,10,37,8.10
2014,03,24,10,38,8.10
2014,03,24,10,39,8.10
2014,03,24,10,40,8.10
2014,03,24,10,41,8.10
2014,03,24,10,42,8.20
2014,03,24,10,43,8.20
2014,03,24,10,44,8.20
2014,03,24,10,45,8.20
2014,03,24,10,46,8.20
2014,03,24,10,47,8.20
2014,03,24,10,48,8.20
2014,03,24,10,49,8.20
2014,03,24,10,50,8.20
2014,03,24,10,51,8.30
2014,03,24,10,52,8.40
2014,03,24,10,53,8.50
2014,03,24,10,54,8.60
2014,03,24,10,55,8.60
2014,03,24,10,56,8.70
2014,03,24,10,57,8.70
2014,03,24,10,58,8.70
2014,03,24,10,59,8.60
2014,03,24,11,00,8.60
2014,03,24,11,01,8.60
2014,03,24,11,02,8.60
2014,03,24,11,03,8.60
2014,03,24,11,04,8.70
2014,03,24,11,05,8.70
2014,03,24,11,06,8.70
2014,03,24,11,07,8.70
2014,03,24,11,08,8.70
2014,03,24,11,09,8.70
2014,03,24,11,10,8.70
2014,03,24,11,11,8.70
2014,03,24,11,12,8.60
2014,03,24,11,13,8.60
2014,03,24,11,14,8.60
2014,03,24,11,15,8.60
2014,03,24,11,16,8.60
2014,03,24,11,17,8.50
2014,03,24,11,18,8.50
2014,03,24,11,19,8.50
2014,03,24,11,20,8.50
2014,03,24,11,21,8.50
2014,03,24,11,22,8.50
2014,03,24,11,23,8.50
2014,03,24,11,24,8.50
2014,03,24,11,25,8.60
2014,03,24,11,26,8.60
2014,03,24,11,27,8.60
2014,03,24,11,28,8.60
2014,03,24,11,29,8.60
2014,03,24,11,30,8.70
2014,03,24,11,31,8.70
2014,03,24,11,32,8.60
2014,03,24,11,33,8.60
2014,03,24,11,34,8.60
2014,03,24,11,35,8.60
2014,03,24,11,36,8.60
2014,03,24,11,37,8.60
2014,03,24,11,38,8.70
2014,03,24,11,39,8.70
2014,03,24,11,40,8.70
2014,03,24,11,41,8.80
2014,03,24,11,42,8.80
2014,03,24,11,43,8.90
2014,03,24,11,44,8.90
2014,03,24,11,45,8.90
2014,03,24,11,46,8.90
2014,03,24,11,47,8.90
2014,03,24,11,48,8.90
2014,03,24,11,49,8.90
2014,03,24,11,50,8.90
2014,03,24,11,51,8.90
2014,03,24,11,52,9.00
2014,03,24,11,53,8.90
2014,03,24,11,54,8.90
2014,03,24,11,55,8.90
2014,03,24,11,56,8.90
2014,03,24,11,57,8.90
2014,03,24,11,58,8.90
2014,03,24,11,59,8.90
2014,03,24,12,00,9.00
2014,03,24,12,01,9.00
2014,03,24,12,02,9.10
2014,03,24,12,03,9.10
2014,03,24,12,04,9.20
2014,03,24,12,05,9.20
2014,03,24,12,06,9.20
2014,03,24,12,07,9.10
2014,03,24,12,08,9.10
2014,03,24,12,09,9.20
2014,03,24,12,10,9.20
2014,03,24,12,11,9.30
2014,03,24,12,12,9.40
2014,03,24,12,13,9.40
2014,03,24,12,14,9.40
2014,03,24,12,15,9.40
2014,03,24,12,16,9.50
2014,03,24,12,17,9.50
2014,03,24,12,18,9.40
2014,03,24,12,19,9.50
2014,03,24,12,20,9.50
2014,03,24,12,21,9.60
2014,03,24,12,22,9.60
2014,03,24,12,23,9.60
2014,03,24,12,24,9.60
2014,03,24,12,25,9.60
2014,03,24,12,26,9.60
2014,03,24,12,27,9.50
2014,03,24,12,28,9.50
2014,03,24,12,29,9.50
2014,03,24,12,30,9.60
2014,03,24,12,31,9.60
2014,03,24,12,32,9.60
2014,03,24,12,33,9.70
2014,03,24,12,34,9.60
2014,03,24,12,35,9.60
2014,03,24,12,36,9.60
2014,03,24,12,37,9.60
2014,03,24,12,38,9.70
2014,03,24,12,39,9.70
2014,03,24,12,40,9.80
2014,03,24,12,41,9.80
2014,03,24,12,42,9.80
2014,03,24,12,43,9.90
2014,03,24,12,44,9.90
2014,03,24,12,45,9.90
2014,03,24,12,46,9.90
2014,03,24,12,47,9.90
2014,03,24,12,48,9.90
2014,03,24,12,49,10.00
2014,03,24,12,50,10.10
2014,03,24,12,51,10.10
2014,03,24,12,52,10.10
2014,03,24,12,53,10.10
2014,03,24,12,54,10.10
2014,03,24,12,55,10.10
2014,03,24,12,56,10.10
2014,03,24,12,57,10.00
2014,03,24,12,58,9.90
2014,03,24,12,59,9.90
2014,03,24,13,00,9.90
2014,03,24,13,01,9.90
2014,03,24,13,02,9.90
2014,03,24,13,03,9.90
2014,03,24,13,04,9.90
2014,03,24,13,05,10.00
2014,03,24,13,06,10.00
2014,03,24,13,07,10.10
2014,03,24,13,08,10.20
2014,03,24,13,09,10.20
2014,03,24,13,10,10.20
2014,03,24,13,11,10.20
2014,03,24,13,12,10.20
2014,03,24,13,13,10.20
2014,03,24,13,14,10.20
2014,03,24,13,15,10.30
2014,03,24,13,16,10.30
2014,03,24,13,17,10.30
2014,03,24,13,18,10.30
2014,03,24,13,19,10.30
2014,03,24,13,20,10.40
2014,03,24,13,21,10.40
2014,03,24,13,22,10.50
2014,03,24,13,23,10.50
2014,03,24,13,24,10.40
2014,03,24,13,25,10.40
2014,03,24,13,26,10.40
2014,03,24,13,27,10.50
2014,03,24,13,28,10.50
2014,03,24,13,29,10.60
2014,03,24,13,30,10.60
2014,03,24,13,31,10.60
2014,03,24,13,32,10.50
2014,03,24,13,33,10.50
2014,03,24,13,34,10.50
2014,03,24,13,35,10.60
2014,03,24,13,36,10.70
2014,03,24,13,37,10.70
2014,03,24,13,38,10.70
2014,03,24,13,39,10.70
2014,03,24,13,40,10.70
2014,03,24,13,41,10.70
2014,03,24,13,42,10.80
2014,03,24,13,43,10.80
2014,03,24,13,44,10.80
2014,03,24,13,45,10.80
2014,03,24,13,46,10.80
2014,03,24,13,47,10.80
2014,03,24,13,48,10.80
2014,03,24,13,49,10.90
2014,03,24,13,50,10.90
2014,03,24,13,51,10.90
2014,03,24,13,52,10.90
2014,03,24,13,53,10.90
2014,03,24,13,54,10.90
2014,03,24,13,55,11.00
2014,03,24,13,56,11.00
2014,03,24,13,57,11.00
2014,03,24,13,58,11.10
2014,03,24,13,59,11.20
2014,03,24,14,00,11.20
2014,03,24,14,01,11.20
2014,03,24,14,02,11.20
2014,03,24,14,03,11.20
2014,03,24,14,04,11.20
2014,03,24,14,05,11.20
2014,03,24,14,06,11.10
2014,03,24,14,07,11.10
2014,03,24,14,08,11.10
2014,03,24,14,09,11.20
2014,03,24,14,10,11.10
2014,03,24,14,11,11.10
2014,03,24,14,12,11.20
2014,03,24,14,13,11.20
2014,03,24,14,14,11.10
2014,03,24,14,15,11.10
2014,03,24,14,16,11.20
2014,03,24,14,17,11.20
2014,03,24,14,18,11.20
2014,03,24,14,19,11.30
2014,03,24,14,20,11.30
2014,03,24,14,21,11.30
2014,03,24,14,22,11.30
2014,03,24,14,23,11.30
2014,03,24,14,24,11.30
2014,03,24,14,25,11.30
2014,03,24,14,26,11.30
2014,03,24,14,27,11.30
2014,03,24,14,28,11.20
2014,03,24,14,29,11.20
2014,03,24,14,30,11.20
2014,03,24,14,31,11.30
2014,03,24,14,32,11.30
2014,03,24,14,33,11.30
2014,03,24,14,34,11.30
2014,03,24,14,35,11.30
2014,03,24,14,36,11.30
2014,03,24,14,37,11.30
2014,03,24,14,38,11.30
2014,03,24,14,39,11.30
2014,03,24,14,40,11.40
2014,03,24,14,41,11.40
2014,03,24,14,42,11.50
2014,03,24,14,43,11.50
2014,03,24,14,44,11.50
2014,03,24,14,45,11.50
2014,03,24,14,46,11.60
2014,03,24,14,47,11.60
2014,03,24,14,48,11.70
2014,03,24,14,49,11.70
2014,03,24,14,50,11.70
2014,03,24,14,51,11.70
2014,03,24,14,52,11.70
2014,03,24,14,53,11.70
2014,03,24,14,54,11.70
2014,03,24,14,55,11.80
2014,03,24,14,56,11.80
2014,03,24,14,57,11.90
2014,03,24,14,58,11.90
2014,03,24,14,59,11.80
2014,03,24,15,00,11.80
2014,03,24,15,01,11.80
2014,03,24,15,02,11.80
2014,03,24,15,03,11.80
2014,03,24,15,04,11.80
2014,03,24,15,05,11.80
2014,03,24,15,06,11.80
2014,03,24,15,07,11.80
2014,03,24,15,08,11.70
2014,03,24,15,09,11.80
2014,03,24,15,10,11.80
2014,03,24,15,11,11.80
2014,03,24,15,12,11.80
2014,03,24,15,13,11.90
2014,03,24,15,14,11.90
2014,03,24,15,15,11.90
2014,03,24,15,16,11.90
2014,03,24,15,17,12.00
2014,03,24,15,18,12.00
2014,03,24,15,19,12.10
2014,03,24,15,20,12.10
2014,03,24,15,21,12.20
2014,03,24,15,22,12.20
2014,03,24,15,23,12.30
2014,03,24,15,24,12.30
2014,03,24,15,25,12.30
2014,03,24,15,26,12.30
2014,03,24,15,27,12.20
2014,03,24,15,28,12.20
2014,03,24,15,29,12.20
2014,03,24,15,30,12.20
2014,03,24,15,31,12.20
2014,03,24,15,32,12.20
2014,03,24,15,33,12.20
2014,03,24,15,34,12.20
2014,03,24,15,35,12.20
2014,03,24,15,36,12.20
2014,03,24,15,37,12.20
2014,03,24,15,38,12.30
2014,03,24,15,39,12.30
2014,03,24,15,40,12.30
2014,03,24,15,41,12.30
2014,03,24,15,42,12.40
2014,03,24,15,43,12.40
2014,03,24,15,44,12.40
2014,03,24,15,45,12.40
2014,03,24,15,46,12.40
2014,03,24,15,47,12.40
2014,03,24,15,48,12.40
2014,03,24,15,49,12.30
2014,03,24,15,50,12.30
2014,03,24,15,51,12.30
2014,03,24,15,52,12.30
2014,03,24,15,53,12.40
2014,03,24,15,54,12.40
2014,03,24,15,55,12.40
2014,03,24,15,56,12.40
2014,03,24,15,57,12.40
2014,03,24,15,58,12.40
2014,03,24,15,59,12.40
2014,03,24,16,00,12.40
2014,03,24,16,01,12.40
2014,03,24,16,02,12.40
2014,03,24,16,03,12.40
2014,03,24,16,04,12.40
2014,03,24,16,05,12.50
2014,03,24,16,06,12.50
2014,03,24,16,07,12.60
2014,03,24,16,08,12.60
2014,03,24,16,09,12.60
2014,03,24,16,10,12.60
2014,03,24,16,11,12.60
2014,03,24,16,12,12.60
2014,03,24,16,13,12.60
2014,03,24,16,14,12.70
2014,03,24,16,15,12.70
2014,03,24,16,16,12.70
2014,03,24,16,17,12.70
2014,03,24,16,18,12.70
2014,03,24,16,19,12.70
2014,03,24,16,20,12.80
2014,03,24,16,21,12.90
2014,03,24,16,22,12.90
2014,03,24,16,23,12.90
2014,03,24,16,24,12.90
2014,03,24,16,25,12.90
2014,03,24,16,26,12.90
2014,03,24,16,27,13.00
2014,03,24,16,28,13.00
2014,03,24,16,29,13.10
2014,03,24,16,30,13.10
2014,03,24,16,31,13.10
2014,03,24,16,32,13.10
2014,03,24,16,33,13.10
2014,03,24,16,34,13.00
2014,03,24,16,35,13.00
2014,03,24,16,36,13.00
2014,03,24,16,37,13.00
2014,03,24,16,38,13.00
2014,03,24,16,39,13.10
2014,03,24,16,40,13.10
2014,03,24,16,41,13.10
2014,03,24,16,42,13.10
2014,03,24,16,43,13.10
2014,03,24,16,44,13.10
2014,03,24,16,45,13.20
2014,03,24,16,46,13.20
2014,03,24,16,47,13.20
2014,03,24,16,48,13.20
2014,03,24,16,49,13.20
2014,03,24,16,50,13.20
2014,03,24,16,51,13.20
2014,03,24,16,52,13.20
2014,03,24,16,53,13.20
2014,03,24,16,54,13.20
2014,03,24,16,55,13.20
2014,03,24,16,56,13.20
2014,03,24,16,57,13.20
2014,03,24,16,58,13.20
2014,03,24,16,59,13.20
2014,03,24,17,00,13.10
2014,03,24,17,01,13.10
2014,03,24,17,02,13.10
2014,03,24,17,03,13.10
2014,03,24,17,04,13.00
2014,03,24,17,05,12.90
2014,03,24,17,06,12.90
2014,03,24,17,07,12.90
2014,03,24,17,08,12.90
2014,03,24,17,09,12.90
2014,03,24,17,10,12.90
2014,03,24,17,11,12.90
2014,03,24,17,12,12.90
2014,03,24,17,13,12.80
2014,03,24,17,14,12.80
2014,03,24,17,15,12.80
2014,03,24,17,16,12.80
2014,03,24,17,17,12.80
2014,03,24,17,18,12.80
2014,03,24,17,19,12.90
2014,03,24,17,20,12.90
2014,03,24,17,21,12.90
2014,03,24,17,22,12.90
2014,03,24,17,23,12.90
2014,03,24,17,24,12.90
2014,03,24,17,25,12.90
2014,03,24,17,26,12.90
2014,03,24,17,27,12.90
2014,03,24,17,28,12.90
2014,03,24,17,29,12.90
2014,03,24,17,30,12.90
2014,03,24,17,31,12.90
2014,03,24,17,32,12.90
2014,03,24,17,33,13.00
2014,03,24,17,34,13.00
2014,03,24,17,35,13.00
2014,03,24,17,36,13.00
2014,03,24,17,37,13.10
2014,03,24,17,38,13.10
2014,03,24,17,39,13.10
2014,03,24,17,40,13.10
2014,03,24,17,41,13.10
2014,03,24,17,42,13.10
2014,03,24,17,43,13.10
2014,03,24,17,44,13.20
2014,03,24,17,45,13.20
2014,03,24,17,46,13.20
2014,03,24,17,47,13.20
2014,03,24,17,48,13.20
2014,03,24,17,49,13.20
2014,03,24,17,50,13.20
2014,03,24,17,51,13.30
2014,03,24,17,52,13.30
2014,03,24,17,53,13.30